When you browse on this site, cookies collect data to enhance your experience and personalize the content and advertising you see.
Visit our Privacy Policy to learn more. By continuing to use the site, you agree to this use of cookies and data.
  • In Hungary
  • List of Countries
  • For 7 days
  • Water Temperature
  • Satellite Maps
  • Weather Map
  • News
  • Weather Widgets
  • user-avatar
    Login

    Hourly Weather Tegucigalpa

    Today, 26 April, Friday

    Time Temperature Precipitation Wind Pressure Humidity
    00:00 +20°C° 0 mm 0 mps 674 mmHg 88%
    01:00 +20°C° 0.1 mm 0 mps 674 mmHg 89%
    02:00 +20°C° 0.1 mm 0 mps 673 mmHg 90%
    03:00 +19°C° 0.1 mm 0 mps 673 mmHg 91%
    04:00 +19°C° 0.1 mm 0 mps 673 mmHg 90%
    05:00 +19°C° 0.1 mm 0 mps 674 mmHg 89%
    06:00 +19°C° 0.1 mm 0 mps 674 mmHg 89%
    07:00 +22°C° 0 mm 0 mps 675 mmHg 77%
    08:00 +25°C° 0 mm 0 mps 675 mmHg 65%
    09:00 +28°C° 0 mm 0 mps 676 mmHg 53%
    10:00 +31°C° 0 mm 1 mps 676 mmHg 47%
    11:00 +31°C° 0 mm 2 mps 676 mmHg 42%
    12:00 +32°C° 0 mm 2 mps 675 mmHg 36%
    13:00 +34°C° 0 mm 3 mps 675 mmHg 34%
    14:00 +34°C° 0 mm 3 mps 675 mmHg 32%
    15:00 +34°C° 0 mm 3 mps 674 mmHg 30%
    16:00 +33°C° 0 mm 3 mps 674 mmHg 35%
    17:00 +30°C° 0 mm 3 mps 674 mmHg 40%
    18:00 +29°C° 0 mm 2 mps 673 mmHg 44%
    19:00 +28°C° 0 mm 2 mps 674 mmHg 49%
    20:00 +27°C° 0 mm 2 mps 674 mmHg 54%
    21:00 +25°C° 0 mm 2 mps 674 mmHg 59%
    22:00 +25°C° 0 mm 2 mps 674 mmHg 63%
    23:00 +24°C° 0 mm 2 mps 674 mmHg 66%

    Tomorrow, 27 April, Saturday

    Time Temperature Precipitation Wind Pressure Humidity
    00:00 +23°C° 0 mm 2 mps 674 mmHg 70%
    01:00 +23°C° 0 mm 1 mps 674 mmHg 72%
    02:00 +22°C° 0 mm 1 mps 673 mmHg 74%
    03:00 +22°C° 0 mm 1 mps 673 mmHg 76%
    04:00 +22°C° 0 mm 1 mps 673 mmHg 78%
    05:00 +21°C° 0 mm 1 mps 673 mmHg 80%
    06:00 +21°C° 0 mm 1 mps 674 mmHg 82%
    07:00 +23°C° 0 mm 2 mps 674 mmHg 72%
    08:00 +26°C° 0 mm 2 mps 675 mmHg 61%
    09:00 +28°C° 0 mm 3 mps 675 mmHg 51%
    10:00 +29°C° 0 mm 3 mps 675 mmHg 45%
    11:00 +31°C° 0 mm 3 mps 675 mmHg 38%
    12:00 +34°C° 0 mm 3 mps 675 mmHg 31%
    13:00 +34°C° 0 mm 3 mps 674 mmHg 29%
    14:00 +34°C° 0 mm 3 mps 674 mmHg 27%
    15:00 +35°C° 0 mm 3 mps 673 mmHg 25%
    16:00 +33°C° 0 mm 3 mps 673 mmHg 27%
    17:00 +31°C° 0 mm 2 mps 673 mmHg 30%
    18:00 +29°C° 0 mm 2 mps 672 mmHg 33%
    19:00 +27°C° 0 mm 2 mps 673 mmHg 38%
    20:00 +26°C° 0 mm 1 mps 673 mmHg 42%
    21:00 +24°C° 0 mm 1 mps 674 mmHg 47%
    22:00 +24°C° 0 mm 1 mps 674 mmHg 52%
    23:00 +24°C° 0 mm 1 mps 674 mmHg 57%

    Day after tomorrow, 28 April, Sunday

    Time Temperature Precipitation Wind Pressure Humidity
    00:00 +23°C° 0 mm 2 mps 674 mmHg 61%
    01:00 +23°C° 0 mm 1 mps 673 mmHg 70%
    02:00 +22°C° 0 mm 1 mps 673 mmHg 79%
    03:00 +21°C° 0 mm 1 mps 672 mmHg 87%
    04:00 +21°C° 0 mm 1 mps 672 mmHg 89%
    05:00 +21°C° 0 mm 1 mps 672 mmHg 91%
    06:00 +21°C° 0 mm 1 mps 673 mmHg 93%
    07:00 +24°C° 0 mm 1 mps 674 mmHg 79%
    08:00 +26°C° 0 mm 1 mps 675 mmHg 65%
    09:00 +29°C° 0 mm 1 mps 676 mmHg 51%
    10:00 +30°C° 0.1 mm 2 mps 675 mmHg 48%
    11:00 +31°C° 0.1 mm 2 mps 675 mmHg 44%
    12:00 +34°C° 0.1 mm 2 mps 675 mmHg 40%
    13:00 +32°C° 0 mm 2 mps 674 mmHg 40%
    14:00 +32°C° 0 mm 2 mps 673 mmHg 41%
    15:00 +32°C° 0 mm 1 mps 672 mmHg 42%
    16:00 +30°C° 0.2 mm 2 mps 672 mmHg 47%
    17:00 +29°C° 0.2 mm 2 mps 672 mmHg 52%
    18:00 +28°C° 0.2 mm 2 mps 672 mmHg 58%
    19:00 +27°C° 1.1 mm 2 mps 673 mmHg 64%
    20:00 +26°C° 1.1 mm 1 mps 673 mmHg 70%
    21:00 +25°C° 1.1 mm 1 mps 674 mmHg 77%
    22:00 +24°C° 0.1 mm 1 mps 674 mmHg 80%
    23:00 +23°C° 0.1 mm 1 mps 673 mmHg 84%

    29 April, Monday

    Time Temperature Precipitation Wind Pressure Humidity
    00:00 +22°C° 0.1 mm 1 mps 673 mmHg 88%
    01:00 +22°C° 0 mm 1 mps 673 mmHg 90%
    02:00 +21°C° 0 mm 1 mps 672 mmHg 93%
    03:00 +21°C° 0 mm 1 mps 672 mmHg 95%
    04:00 +21°C° 0 mm 1 mps 672 mmHg 94%
    05:00 +21°C° 0 mm 1 mps 673 mmHg 93%
    06:00 +20°C° 0 mm 2 mps 673 mmHg 91%
    07:00 +24°C° 0 mm 2 mps 674 mmHg 80%
    08:00 +26°C° 0 mm 2 mps 675 mmHg 69%
    09:00 +28°C° 0 mm 2 mps 675 mmHg 58%
    10:00 +29°C° 0 mm 3 mps 675 mmHg 52%
    11:00 +31°C° 0 mm 3 mps 675 mmHg 46%
    12:00 +33°C° 0 mm 3 mps 675 mmHg 39%
    13:00 +33°C° 0 mm 3 mps 674 mmHg 38%
    14:00 +34°C° 0 mm 3 mps 673 mmHg 37%
    15:00 +34°C° 0 mm 4 mps 673 mmHg 36%
    16:00 +31°C° 0.2 mm 3 mps 673 mmHg 42%
    17:00 +30°C° 0.2 mm 3 mps 673 mmHg 49%
    18:00 +28°C° 0.2 mm 3 mps 673 mmHg 55%
    19:00 +27°C° 0.6 mm 2 mps 673 mmHg 61%
    20:00 +25°C° 0.6 mm 2 mps 674 mmHg 67%
    21:00 +24°C° 0.6 mm 2 mps 674 mmHg 73%
    22:00 +23°C° 0 mm 2 mps 674 mmHg 77%
    23:00 +21°C° 0 mm 2 mps 673 mmHg 81%

    30 April, Tuesday

    Time Temperature Precipitation Wind Pressure Humidity
    00:00 +21°C° 0 mm 2 mps 673 mmHg 85%
    01:00 +20°C° 0 mm 2 mps 673 mmHg 88%
    02:00 +20°C° 0 mm 2 mps 673 mmHg 91%
    03:00 +20°C° 0 mm 2 mps 672 mmHg 94%
    04:00 +20°C° 0 mm 2 mps 673 mmHg 93%
    05:00 +20°C° 0 mm 2 mps 673 mmHg 92%
    06:00 +20°C° 0 mm 2 mps 673 mmHg 92%
    07:00 +21°C° 0 mm 2 mps 674 mmHg 81%
    08:00 +24°C° 0 mm 3 mps 674 mmHg 70%
    09:00 +26°C° 0 mm 3 mps 675 mmHg 59%
    10:00 +28°C° 0 mm 3 mps 675 mmHg 52%
    11:00 +30°C° 0 mm 3 mps 675 mmHg 44%
    12:00 +33°C° 0 mm 3 mps 675 mmHg 37%
    13:00 +33°C° 0 mm 4 mps 674 mmHg 36%
    14:00 +33°C° 0 mm 4 mps 673 mmHg 34%
    15:00 +34°C° 0 mm 4 mps 673 mmHg 33%
    16:00 +32°C° 0 mm 4 mps 673 mmHg 37%
    17:00 +30°C° 0 mm 3 mps 673 mmHg 40%
    18:00 +28°C° 0 mm 3 mps 673 mmHg 44%
    19:00 +27°C° 0 mm 3 mps 674 mmHg 51%
    20:00 +26°C° 0 mm 3 mps 674 mmHg 57%
    21:00 +25°C° 0 mm 2 mps 674 mmHg 64%
    22:00 +24°C° 0 mm 2 mps 674 mmHg 70%
    23:00 +23°C° 0 mm 2 mps 674 mmHg 76%

    1 May, Wednesday

    Time Temperature Precipitation Wind Pressure Humidity
    00:00 +21°C° 0 mm 2 mps 673 mmHg 82%
    01:00 +20°C° 0 mm 2 mps 673 mmHg 86%
    02:00 +20°C° 0 mm 2 mps 673 mmHg 90%
    03:00 +20°C° 0 mm 2 mps 672 mmHg 94%
    04:00 +20°C° 0 mm 2 mps 673 mmHg 92%
    05:00 +20°C° 0 mm 2 mps 673 mmHg 91%
    06:00 +20°C° 0 mm 2 mps 673 mmHg 89%
    07:00 +22°C° 0 mm 3 mps 674 mmHg 80%
    08:00 +24°C° 0 mm 3 mps 675 mmHg 70%
    09:00 +26°C° 0 mm 3 mps 675 mmHg 61%
    10:00 +28°C° 0 mm 3 mps 675 mmHg 53%
    11:00 +30°C° 0 mm 4 mps 675 mmHg 46%
    12:00 +32°C° 0 mm 4 mps 675 mmHg 38%
    13:00 +33°C° 0 mm 4 mps 674 mmHg 37%
    14:00 +33°C° 0 mm 4 mps 673 mmHg 35%
    15:00 +34°C° 0 mm 4 mps 673 mmHg 34%
    16:00 +32°C° 0 mm 4 mps 673 mmHg 40%
    17:00 +29°C° 0 mm 3 mps 673 mmHg 46%
    18:00 +28°C° 0 mm 3 mps 673 mmHg 52%
    19:00 +27°C° 0 mm 3 mps 673 mmHg 57%
    20:00 +25°C° 0 mm 2 mps 674 mmHg 62%
    21:00 +24°C° 0 mm 2 mps 674 mmHg 67%
    22:00 +23°C° 0 mm 2 mps 674 mmHg 72%
    23:00 +23°C° 0 mm 2 mps 674 mmHg 77%
    Show more